Location: LDNL
(36.4545°S, 141.6685°E)
Time: 11:32:05
(UTC+10:00)

Explorer 7 - Pass Details

Date: 16 August 2022
Orbit: 482 x 668 km, 50.3° (Epoch: 26 September)

Event Time Altitude Azimuth Distance (km) Brightness Sun altitude
Rises 00:29:05 0° 235° (SW) 2,880 - -67.4°
Reaches altitude 10° 00:31:30 10° 239° (WSW) 1,938 - -67.4°
Maximum altitude 00:35:49 54° 316° (NW) 696 - -67.5°
Drops below altitude 10° 00:39:50 10° 33° (NNE) 1,801 - -67.5°
Sets 00:42:00 0° 38° (NE) 2,656 - -67.5°
